User: anonymous   Login
Location: ?
(35.6144°N, 139.6873°E)
Time: 16:37:21
(UTC+00:00)
Language:

Cosmos 2237 Rocket - Orbit

View from above orbital plane
View from above orbital plane
View from above satellite
View from above satellite

Ground track
Ground track

The orbit data is extracted from the following two-line orbital elements,

1 22566U 93016B   24199.91499310  .00000054  00000-0  52471-4 0  9993
2 22566  71.0085  34.7518 0009555 168.8952 191.2384 14.15148077617319
Epoch (UTC): 17 July 2024 21:57:35
Eccentricity: 0.0009555
inclination: 71.0085°
perigee height: 835 km
apogee height: 849 km
right ascension of ascending node: 34.7518°
argument of perigee: 168.8952°
revolutions per day: 14.15148077
mean anomaly at epoch: 191.2384°
orbit number at epoch: 61731

The dashed part of the orbit path shows where the satellite is in the earth's shadow,  

DLR